date,time,SUV Intensity [MED/Hr],UV Index,Daily total [MED],Since Last [MED]
23/11/2023,00:03:52,0.000,0.0,0.0,0.0
23/11/2023,00:04:52,-0.001,0.0,0.0,0.0
23/11/2023,00:05:51,0.000,0.0,0.0,0.0
23/11/2023,00:06:51,0.000,0.0,0.0,0.0
23/11/2023,00:07:51,0.000,0.0,0.0,0.0
23/11/2023,00:08:49,0.000,0.0,0.0,0.0
23/11/2023,00:09:52,0.000,0.0,0.0,0.0
23/11/2023,00:10:52,0.000,0.0,0.0,0.0
23/11/2023,00:11:51,0.000,0.0,0.0,0.0
23/11/2023,00:12:51,0.000,0.0,0.0,0.0
23/11/2023,00:13:51,0.000,0.0,0.0,0.0
23/11/2023,00:14:52,-0.001,0.0,0.0,0.0
23/11/2023,00:15:52,0.000,0.0,0.0,0.0
23/11/2023,00:16:52,0.001,0.0,0.0,0.0
23/11/2023,00:17:51,0.000,0.0,0.0,0.0
23/11/2023,00:18:51,0.001,0.0,0.0,0.0
23/11/2023,00:19:51,0.000,0.0,0.0,0.0
23/11/2023,00:20:51,-0.000,0.0,0.0,0.0
23/11/2023,00:21:52,-0.000,0.0,0.0,0.0
23/11/2023,00:22:51,0.000,0.0,0.0,0.0
23/11/2023,00:23:51,-0.000,0.0,0.0,0.0
23/11/2023,00:24:51,0.000,0.0,0.0,0.0
23/11/2023,00:25:51,0.001,0.0,0.0,0.0
23/11/2023,00:26:51,-0.001,0.0,0.0,0.0
23/11/2023,00:27:52,-0.001,0.0,0.0,0.0
23/11/2023,00:28:52,-0.000,0.0,0.0,0.0
23/11/2023,00:29:52,0.000,0.0,0.0,0.0
23/11/2023,00:30:51,-0.001,0.0,0.0,0.0
23/11/2023,00:31:51,0.000,0.0,0.0,0.0
23/11/2023,00:32:51,0.001,0.0,0.0,0.0
23/11/2023,00:33:51,-0.001,0.0,0.0,0.0
23/11/2023,00:34:52,0.001,0.0,0.0,0.0
23/11/2023,00:35:52,0.000,0.0,0.0,0.0
23/11/2023,00:36:52,0.000,0.0,0.0,0.0
23/11/2023,00:37:52,-0.000,0.0,0.0,0.0
23/11/2023,00:38:52,-0.001,0.0,0.0,0.0
23/11/2023,00:39:52,0.001,0.0,0.0,0.0
23/11/2023,00:40:52,0.000,0.0,0.0,0.0
23/11/2023,00:41:51,0.001,0.0,0.0,0.0
23/11/2023,00:42:51,0.000,0.0,0.0,0.0
23/11/2023,00:43:52,0.000,0.0,0.0,0.0
23/11/2023,00:44:52,0.000,0.0,0.0,0.0
23/11/2023,00:45:51,0.000,0.0,0.0,0.0
23/11/2023,00:46:52,0.000,0.0,0.0,0.0
23/11/2023,00:47:52,-0.001,0.0,0.0,0.0
23/11/2023,00:48:52,0.001,0.0,0.0,0.0
23/11/2023,00:49:51,0.000,0.0,0.0,0.0
23/11/2023,00:50:52,0.000,0.0,0.0,0.0
23/11/2023,00:51:51,-0.000,0.0,0.0,0.0
23/11/2023,00:52:52,-0.000,0.0,0.0,0.0
23/11/2023,00:53:52,0.001,0.0,0.0,0.0
23/11/2023,00:54:51,-0.000,0.0,0.0,0.0
23/11/2023,00:55:52,0.000,0.0,0.0,0.0
23/11/2023,00:56:52,0.000,0.0,0.0,0.0
23/11/2023,00:57:51,-0.000,0.0,0.0,0.0
23/11/2023,00:58:51,-0.001,0.0,0.0,0.0
23/11/2023,00:59:52,0.000,0.0,0.0,0.0
23/11/2023,01:00:52,-0.001,0.0,0.0,0.0
23/11/2023,01:01:51,-0.000,0.0,0.0,0.0
23/11/2023,01:02:52,0.001,0.0,0.0,0.0
23/11/2023,01:03:51,0.001,0.0,0.0,0.0
23/11/2023,01:04:52,-0.001,0.0,0.0,0.0
23/11/2023,01:05:52,0.001,0.0,0.0,0.0
23/11/2023,01:06:51,0.000,0.0,0.0,0.0
23/11/2023,01:07:51,0.000,0.0,0.0,0.0
23/11/2023,01:08:52,-0.001,0.0,0.0,0.0
23/11/2023,01:09:51,0.000,0.0,0.0,0.0
23/11/2023,01:10:52,0.001,0.0,0.0,0.0
23/11/2023,01:11:53,-0.001,0.0,0.0,0.0
23/11/2023,01:12:51,0.000,0.0,0.0,0.0
23/11/2023,01:13:52,-0.001,0.0,0.0,0.0
23/11/2023,01:14:52,0.000,0.0,0.0,0.0
23/11/2023,01:15:52,0.000,0.0,0.0,0.0
23/11/2023,01:16:51,0.001,0.0,0.0,0.0
23/11/2023,01:17:51,-0.001,0.0,0.0,0.0
23/11/2023,01:18:52,-0.000,0.0,0.0,0.0
23/11/2023,01:19:51,-0.000,0.0,0.0,0.0
23/11/2023,01:20:51,0.000,0.0,0.0,0.0
23/11/2023,01:21:51,0.000,0.0,0.0,0.0
23/11/2023,01:22:52,-0.000,0.0,0.0,0.0
23/11/2023,01:23:52,0.000,0.0,0.0,0.0
23/11/2023,01:24:52,0.000,0.0,0.0,0.0
23/11/2023,01:25:51,-0.001,0.0,0.0,0.0
23/11/2023,01:26:51,-0.000,0.0,0.0,0.0
23/11/2023,01:27:52,0.001,0.0,0.0,0.0
23/11/2023,01:28:52,0.000,0.0,0.0,0.0
23/11/2023,01:29:51,0.000,0.0,0.0,0.0
23/11/2023,01:30:52,0.000,0.0,0.0,0.0
23/11/2023,01:31:52,0.000,0.0,0.0,0.0
23/11/2023,01:32:51,-0.000,0.0,0.0,0.0
23/11/2023,01:33:51,-0.000,0.0,0.0,0.0
23/11/2023,01:34:52,-0.001,0.0,0.0,0.0
23/11/2023,01:35:52,-0.000,0.0,0.0,0.0
23/11/2023,01:36:52,0.000,0.0,0.0,0.0
23/11/2023,01:37:52,-0.001,0.0,0.0,0.0
23/11/2023,01:38:52,0.000,0.0,0.0,0.0
23/11/2023,01:39:52,-0.000,0.0,0.0,0.0
23/11/2023,01:40:52,-0.000,0.0,0.0,0.0
23/11/2023,01:41:51,0.001,0.0,0.0,0.0
23/11/2023,01:42:52,0.001,0.0,0.0,0.0
23/11/2023,01:43:52,-0.000,0.0,0.0,0.0
23/11/2023,01:44:52,-0.000,0.0,0.0,0.0
23/11/2023,01:45:52,-0.000,0.0,0.0,0.0
23/11/2023,01:46:52,0.001,0.0,0.0,0.0
23/11/2023,01:47:52,-0.000,0.0,0.0,0.0
23/11/2023,01:48:52,0.000,0.0,0.0,0.0
23/11/2023,01:49:51,-0.000,0.0,0.0,0.0
23/11/2023,01:50:52,-0.000,0.0,0.0,0.0
23/11/2023,01:51:52,-0.000,0.0,0.0,0.0
23/11/2023,01:52:52,0.000,0.0,0.0,0.0
23/11/2023,01:53:51,0.000,0.0,0.0,0.0
23/11/2023,01:54:51,-0.001,0.0,0.0,0.0
23/11/2023,01:55:51,-0.001,0.0,0.0,0.0
23/11/2023,01:56:51,-0.000,0.0,0.0,0.0
23/11/2023,01:57:52,0.001,0.0,0.0,0.0
23/11/2023,01:58:52,-0.001,0.0,0.0,0.0
23/11/2023,01:59:52,-0.001,0.0,0.0,0.0
23/11/2023,02:00:52,-0.001,0.0,0.0,0.0
23/11/2023,02:01:52,0.000,0.0,0.0,0.0
23/11/2023,02:02:52,0.000,0.0,0.0,0.0
23/11/2023,02:03:52,0.000,0.0,0.0,0.0
23/11/2023,02:04:51,0.000,0.0,0.0,0.0
23/11/2023,02:05:52,0.000,0.0,0.0,0.0
23/11/2023,02:06:52,-0.000,0.0,0.0,0.0
23/11/2023,02:07:52,0.001,0.0,0.0,0.0
23/11/2023,02:08:52,-0.001,0.0,0.0,0.0
23/11/2023,02:09:52,0.000,0.0,0.0,0.0
23/11/2023,02:10:52,-0.000,0.0,0.0,0.0
23/11/2023,02:11:52,-0.000,0.0,0.0,0.0
23/11/2023,02:12:52,0.000,0.0,0.0,0.0
23/11/2023,02:13:51,-0.000,0.0,0.0,0.0
23/11/2023,02:14:52,-0.000,0.0,0.0,0.0
23/11/2023,02:15:52,0.000,0.0,0.0,0.0
23/11/2023,02:16:52,0.000,0.0,0.0,0.0
23/11/2023,02:17:52,-0.000,0.0,0.0,0.0
23/11/2023,02:18:51,0.000,0.0,0.0,0.0
23/11/2023,02:19:52,-0.000,0.0,0.0,0.0
23/11/2023,02:20:52,-0.000,0.0,0.0,0.0
23/11/2023,02:21:52,-0.000,0.0,0.0,0.0
23/11/2023,02:22:51,0.000,0.0,0.0,0.0
23/11/2023,02:23:52,0.001,0.0,0.0,0.0
23/11/2023,02:24:52,-0.000,0.0,0.0,0.0
23/11/2023,02:25:52,-0.001,0.0,0.0,0.0
23/11/2023,02:26:51,-0.000,0.0,0.0,0.0
23/11/2023,02:27:51,0.001,0.0,0.0,0.0
23/11/2023,02:28:52,0.001,0.0,0.0,0.0
23/11/2023,02:29:52,-0.001,0.0,0.0,0.0
23/11/2023,02:30:52,-0.000,0.0,0.0,0.0
23/11/2023,02:31:51,0.000,0.0,0.0,0.0
23/11/2023,02:32:52,0.001,0.0,0.0,0.0
23/11/2023,02:33:51,-0.001,0.0,0.0,0.0
23/11/2023,02:34:52,-0.000,0.0,0.0,0.0
23/11/2023,02:35:52,-0.001,0.0,0.0,0.0
23/11/2023,02:36:52,0.000,0.0,0.0,0.0
23/11/2023,02:37:52,-0.000,0.0,0.0,0.0
23/11/2023,02:38:51,0.000,0.0,0.0,0.0
23/11/2023,02:39:52,-0.000,0.0,0.0,0.0
23/11/2023,02:40:51,0.000,0.0,0.0,0.0
23/11/2023,02:41:51,-0.000,0.0,0.0,0.0
23/11/2023,02:42:51,0.001,0.0,0.0,0.0
23/11/2023,02:43:52,-0.001,0.0,0.0,0.0
23/11/2023,02:44:52,0.000,0.0,0.0,0.0
23/11/2023,02:45:51,0.000,0.0,0.0,0.0
23/11/2023,02:46:51,0.000,0.0,0.0,0.0
23/11/2023,02:47:51,-0.000,0.0,0.0,0.0
23/11/2023,02:48:52,0.001,0.0,0.0,0.0
23/11/2023,02:49:52,-0.000,0.0,0.0,0.0
23/11/2023,02:50:52,-0.000,0.0,0.0,0.0
23/11/2023,02:51:51,0.000,0.0,0.0,0.0
23/11/2023,02:52:51,-0.001,0.0,0.0,0.0
23/11/2023,02:53:52,-0.000,0.0,0.0,0.0
23/11/2023,02:54:52,-0.000,0.0,0.0,0.0
23/11/2023,02:55:52,-0.000,0.0,0.0,0.0
23/11/2023,02:56:57,-0.000,0.0,0.0,0.0
23/11/2023,02:57:53,-0.001,0.0,0.0,0.0
23/11/2023,02:58:52,0.001,0.0,0.0,0.0
23/11/2023,02:59:51,0.000,0.0,0.0,0.0
23/11/2023,03:00:52,0.001,0.0,0.0,0.0
23/11/2023,03:01:52,0.000,0.0,0.0,0.0
23/11/2023,03:02:52,-0.000,0.0,0.0,0.0
23/11/2023,03:03:51,0.000,0.0,0.0,0.0
23/11/2023,03:04:52,0.000,0.0,0.0,0.0
23/11/2023,03:05:51,-0.000,0.0,0.0,0.0
23/11/2023,03:07:14,-0.001,0.0,0.0,0.0
23/11/2023,03:07:52,-0.001,0.0,0.0,0.0
23/11/2023,03:08:52,-0.001,0.0,0.0,0.0
23/11/2023,03:09:52,-0.000,0.0,0.0,0.0
23/11/2023,03:10:52,0.001,0.0,0.0,0.0
23/11/2023,03:11:51,-0.000,0.0,0.0,0.0
23/11/2023,03:12:52,-0.000,0.0,0.0,0.0
23/11/2023,03:13:52,-0.000,0.0,0.0,0.0
23/11/2023,03:14:52,-0.001,0.0,0.0,0.0
23/11/2023,03:15:52,0.000,0.0,0.0,0.0
23/11/2023,03:16:52,0.000,0.0,0.0,0.0
23/11/2023,03:17:51,0.000,0.0,0.0,0.0
23/11/2023,03:18:52,-0.000,0.0,0.0,0.0
23/11/2023,03:19:52,-0.000,0.0,0.0,0.0
23/11/2023,03:20:52,-0.000,0.0,0.0,0.0
23/11/2023,03:21:52,-0.000,0.0,0.0,0.0
23/11/2023,03:22:52,-0.000,0.0,0.0,0.0
23/11/2023,03:23:52,0.001,0.0,0.0,0.0
23/11/2023,03:24:52,-0.001,0.0,0.0,0.0
23/11/2023,03:25:52,-0.000,0.0,0.0,0.0
23/11/2023,03:26:52,0.001,0.0,0.0,0.0
23/11/2023,03:27:51,-0.000,0.0,0.0,0.0
23/11/2023,03:28:51,-0.001,0.0,0.0,0.0
23/11/2023,03:29:52,-0.000,0.0,0.0,0.0
23/11/2023,03:30:52,-0.001,0.0,0.0,0.0
23/11/2023,03:31:51,0.001,0.0,0.0,0.0
23/11/2023,03:32:52,-0.000,0.0,0.0,0.0
23/11/2023,03:33:52,-0.001,0.0,0.0,0.0
23/11/2023,03:34:51,0.000,0.0,0.0,0.0
23/11/2023,03:35:52,-0.000,0.0,0.0,0.0
23/11/2023,03:36:52,-0.000,0.0,0.0,0.0
23/11/2023,03:37:52,-0.000,0.0,0.0,0.0
23/11/2023,03:38:51,-0.000,0.0,0.0,0.0
23/11/2023,03:39:52,-0.001,0.0,0.0,0.0
23/11/2023,03:40:52,-0.000,0.0,0.0,0.0
23/11/2023,03:41:51,-0.000,0.0,0.0,0.0
23/11/2023,03:42:52,0.000,0.0,0.0,0.0
23/11/2023,03:43:52,-0.001,0.0,0.0,0.0
23/11/2023,03:44:52,-0.000,0.0,0.0,0.0
23/11/2023,03:45:51,-0.000,0.0,0.0,0.0
23/11/2023,03:46:51,-0.000,0.0,0.0,0.0
23/11/2023,03:47:52,-0.000,0.0,0.0,0.0
23/11/2023,03:48:52,-0.001,0.0,0.0,0.0
23/11/2023,03:49:52,0.000,0.0,0.0,0.0
23/11/2023,03:50:52,-0.000,0.0,0.0,0.0
23/11/2023,03:51:52,-0.000,0.0,0.0,0.0
23/11/2023,03:52:52,-0.000,0.0,0.0,0.0
23/11/2023,03:53:52,0.000,0.0,0.0,0.0
23/11/2023,03:54:52,0.001,0.0,0.0,0.0
23/11/2023,03:55:52,-0.000,0.0,0.0,0.0
23/11/2023,03:56:51,-0.000,0.0,0.0,0.0
23/11/2023,03:57:52,-0.001,0.0,0.0,0.0
23/11/2023,03:58:52,-0.001,0.0,0.0,0.0
23/11/2023,03:59:52,-0.001,0.0,0.0,0.0
23/11/2023,04:00:52,-0.001,0.0,0.0,0.0
23/11/2023,04:01:52,-0.001,0.0,0.0,0.0
23/11/2023,04:02:52,-0.001,0.0,0.0,0.0
23/11/2023,04:03:52,-0.000,0.0,0.0,0.0
23/11/2023,04:04:52,-0.000,0.0,0.0,0.0
23/11/2023,04:05:52,0.001,0.0,0.0,0.0
23/11/2023,04:06:52,-0.000,0.0,0.0,0.0
23/11/2023,04:07:52,-0.001,0.0,0.0,0.0
23/11/2023,04:08:52,-0.001,0.0,0.0,0.0
23/11/2023,04:09:52,-0.000,0.0,0.0,0.0
23/11/2023,04:10:51,-0.000,0.0,0.0,0.0
23/11/2023,04:11:52,-0.000,0.0,0.0,0.0
23/11/2023,04:12:52,0.000,0.0,0.0,0.0
23/11/2023,04:13:52,-0.000,0.0,0.0,0.0
23/11/2023,04:14:52,-0.000,0.0,0.0,0.0
23/11/2023,04:15:52,0.000,0.0,0.0,0.0
23/11/2023,04:16:51,-0.001,0.0,0.0,0.0
23/11/2023,04:17:51,-0.000,0.0,0.0,0.0
23/11/2023,04:18:52,0.001,0.0,0.0,0.0
23/11/2023,04:19:52,-0.000,0.0,0.0,0.0
23/11/2023,04:20:52,-0.000,0.0,0.0,0.0
23/11/2023,04:21:52,-0.000,0.0,0.0,0.0
23/11/2023,04:22:51,-0.000,0.0,0.0,0.0
23/11/2023,04:23:52,-0.000,0.0,0.0,0.0
23/11/2023,04:24:52,-0.001,0.0,0.0,0.0
23/11/2023,04:25:52,-0.001,0.0,0.0,0.0
23/11/2023,04:26:52,-0.000,0.0,0.0,0.0
23/11/2023,04:27:52,-0.000,0.0,0.0,0.0
23/11/2023,04:28:52,-0.000,0.0,0.0,0.0
23/11/2023,04:29:52,-0.000,0.0,0.0,0.0
23/11/2023,04:30:51,-0.000,0.0,0.0,0.0
23/11/2023,04:31:51,-0.000,0.0,0.0,0.0
23/11/2023,04:32:52,-0.000,0.0,0.0,0.0
23/11/2023,04:33:52,-0.000,0.0,0.0,0.0
23/11/2023,04:34:52,-0.000,0.0,0.0,0.0
23/11/2023,04:35:52,-0.001,0.0,0.0,0.0
23/11/2023,04:36:51,-0.000,0.0,0.0,0.0
23/11/2023,04:37:53,-0.000,0.0,0.0,0.0
23/11/2023,04:38:52,-0.001,0.0,0.0,0.0
23/11/2023,04:39:51,-0.000,0.0,0.0,0.0
23/11/2023,04:40:52,-0.000,0.0,0.0,0.0
23/11/2023,04:41:52,-0.000,0.0,0.0,0.0
23/11/2023,04:42:52,-0.001,0.0,0.0,0.0
23/11/2023,04:43:51,0.000,0.0,0.0,0.0
23/11/2023,04:44:52,-0.000,0.0,0.0,0.0
23/11/2023,04:45:53,-0.001,0.0,0.0,0.0
23/11/2023,04:46:51,-0.001,0.0,0.0,0.0
23/11/2023,04:47:52,-0.000,0.0,0.0,0.0
23/11/2023,04:48:52,0.000,0.0,0.0,0.0
23/11/2023,04:49:52,-0.000,0.0,0.0,0.0
23/11/2023,04:50:52,-0.000,0.0,0.0,0.0
23/11/2023,04:51:52,-0.001,0.0,0.0,0.0
23/11/2023,04:52:52,-0.000,0.0,0.0,0.0
23/11/2023,04:53:52,-0.001,0.0,0.0,0.0
23/11/2023,04:54:52,-0.000,0.0,0.0,0.0
23/11/2023,04:55:52,-0.000,0.0,0.0,0.0
23/11/2023,04:56:52,-0.000,0.0,0.0,0.0
23/11/2023,04:57:52,-0.000,0.0,0.0,0.0
23/11/2023,04:58:52,0.000,0.0,0.0,0.0
23/11/2023,04:59:51,-0.000,0.0,0.0,0.0
23/11/2023,05:00:52,-0.000,0.0,0.0,0.0
23/11/2023,05:01:52,-0.000,0.0,0.0,0.0
23/11/2023,05:02:52,0.001,0.0,0.0,0.0
23/11/2023,05:03:52,0.001,0.0,0.0,0.0
23/11/2023,05:04:52,0.001,0.0,0.0,0.0
23/11/2023,05:05:52,0.000,0.0,0.0,0.0
23/11/2023,05:06:52,0.000,0.0,0.0,0.0
23/11/2023,05:07:52,0.001,0.0,0.0,0.0
23/11/2023,05:08:52,-0.000,0.0,0.0,0.0
23/11/2023,05:09:52,-0.000,0.0,0.0,0.0
23/11/2023,05:10:52,0.000,0.0,0.0,0.0
23/11/2023,05:11:52,-0.001,0.0,0.0,0.0
23/11/2023,05:12:52,-0.000,0.0,0.0,0.0
23/11/2023,05:13:52,-0.000,0.0,0.0,0.0
23/11/2023,05:14:52,-0.000,0.0,0.0,0.0
23/11/2023,05:15:52,-0.001,0.0,0.0,0.0
23/11/2023,05:16:52,0.001,0.0,0.0,0.0
23/11/2023,05:17:52,-0.000,0.0,0.0,0.0
23/11/2023,05:18:52,0.001,0.0,0.0,0.0
23/11/2023,05:19:52,-0.000,0.0,0.0,0.0
23/11/2023,05:20:52,-0.000,0.0,0.0,0.0
23/11/2023,05:21:52,-0.000,0.0,0.0,0.0
23/11/2023,05:22:52,-0.000,0.0,0.0,0.0
23/11/2023,05:23:52,-0.000,0.0,0.0,0.0
23/11/2023,05:24:52,-0.000,0.0,0.0,0.0
23/11/2023,05:25:52,0.001,0.0,0.0,0.0
23/11/2023,05:26:52,-0.000,0.0,0.0,0.0
23/11/2023,05:27:52,0.000,0.0,0.0,0.0
23/11/2023,05:28:52,-0.000,0.0,0.0,0.0
23/11/2023,05:29:52,0.000,0.0,0.0,0.0
23/11/2023,05:30:52,-0.000,0.0,0.0,0.0
23/11/2023,05:31:52,0.001,0.0,0.0,0.0
23/11/2023,05:32:52,-0.000,0.0,0.0,0.0
23/11/2023,05:33:52,0.000,0.0,0.0,0.0
23/11/2023,05:34:52,-0.000,0.0,0.0,0.0
23/11/2023,05:35:52,-0.000,0.0,0.0,0.0
23/11/2023,05:36:53,-0.000,0.0,0.0,0.0
23/11/2023,05:37:52,-0.000,0.0,0.0,0.0
23/11/2023,05:38:52,-0.001,0.0,0.0,0.0
23/11/2023,05:39:52,-0.000,0.0,0.0,0.0
23/11/2023,05:40:52,-0.000,0.0,0.0,0.0
23/11/2023,05:41:52,-0.001,0.0,0.0,0.0
23/11/2023,05:42:52,-0.001,0.0,0.0,0.0
23/11/2023,05:43:52,-0.001,0.0,0.0,0.0
23/11/2023,05:44:52,-0.000,0.0,0.0,0.0
23/11/2023,05:45:52,-0.000,0.0,0.0,0.0
23/11/2023,05:46:52,-0.001,0.0,0.0,0.0
23/11/2023,05:47:52,-0.000,0.0,0.0,0.0
23/11/2023,05:48:52,-0.001,0.0,0.0,0.0
23/11/2023,05:49:53,-0.000,0.0,0.0,0.0
23/11/2023,05:50:53,0.000,0.0,0.0,0.0
23/11/2023,05:51:52,-0.000,0.0,0.0,0.0
23/11/2023,05:52:52,-0.000,0.0,0.0,0.0
23/11/2023,05:53:51,-0.000,0.0,0.0,0.0
23/11/2023,05:54:52,-0.000,0.0,0.0,0.0
23/11/2023,05:55:52,-0.000,0.0,0.0,0.0
23/11/2023,05:56:53,0.000,0.0,0.0,0.0
23/11/2023,05:57:52,-0.000,0.0,0.0,0.0
23/11/2023,05:58:52,-0.000,0.0,0.0,0.0
23/11/2023,05:59:52,-0.001,0.0,0.0,0.0
23/11/2023,06:00:52,-0.000,0.0,0.0,0.0
23/11/2023,06:01:52,-0.000,0.0,0.0,0.0
23/11/2023,06:02:52,-0.000,0.0,0.0,0.0
23/11/2023,06:03:52,-0.000,0.0,0.0,0.0
23/11/2023,06:04:52,-0.001,0.0,0.0,0.0
23/11/2023,06:05:52,-0.000,0.0,0.0,0.0
23/11/2023,06:06:52,-0.000,0.0,0.0,0.0
23/11/2023,06:07:52,-0.000,0.0,0.0,0.0
23/11/2023,06:08:52,-0.000,0.0,0.0,0.0
23/11/2023,06:09:52,-0.001,0.0,0.0,0.0
23/11/2023,06:10:52,0.000,0.0,0.0,0.0
23/11/2023,06:11:52,0.000,0.0,0.0,0.0
23/11/2023,06:12:53,-0.001,0.0,0.0,0.0
23/11/2023,06:13:52,0.000,0.0,0.0,0.0
23/11/2023,06:14:52,-0.000,0.0,0.0,0.0
23/11/2023,06:15:52,-0.000,0.0,0.0,0.0
23/11/2023,06:16:53,0.000,0.0,0.0,0.0
23/11/2023,06:17:52,-0.000,0.0,0.0,0.0
23/11/2023,06:18:52,-0.001,0.0,0.0,0.0
23/11/2023,06:19:52,-0.001,0.0,0.0,0.0
23/11/2023,06:20:52,-0.001,0.0,0.0,0.0
23/11/2023,06:21:52,0.001,0.0,0.0,0.0
23/11/2023,06:22:52,0.000,0.0,0.0,0.0
23/11/2023,06:23:52,0.000,0.0,0.0,0.0
23/11/2023,06:24:53,-0.001,0.0,0.0,0.0
23/11/2023,06:25:52,0.000,0.0,0.0,0.0
23/11/2023,06:26:52,-0.000,0.0,0.0,0.0
23/11/2023,06:27:52,-0.001,0.0,0.0,0.0
23/11/2023,06:28:52,-0.001,0.0,0.0,0.0
23/11/2023,06:29:52,0.001,0.0,0.0,0.0
23/11/2023,06:30:52,-0.000,0.0,0.0,0.0
23/11/2023,06:31:52,0.000,0.0,0.0,0.0
23/11/2023,06:32:53,-0.001,0.0,0.0,0.0
23/11/2023,06:33:52,0.000,0.0,0.0,0.0
23/11/2023,06:34:52,-0.000,0.0,0.0,0.0
23/11/2023,06:35:52,-0.000,0.0,0.0,0.0
23/11/2023,06:36:52,-0.000,0.0,0.0,0.0
23/11/2023,06:37:52,-0.001,0.0,0.0,0.0
23/11/2023,06:38:52,0.001,0.0,0.0,0.0
23/11/2023,06:39:52,-0.001,0.0,0.0,0.0
23/11/2023,06:40:52,0.001,0.0,0.0,0.0
23/11/2023,06:41:52,0.001,0.0,0.0,0.0
23/11/2023,06:42:53,0.001,0.0,0.0,0.0
23/11/2023,06:43:52,-0.000,0.0,0.0,0.0
23/11/2023,06:44:52,0.000,0.0,0.0,0.0
23/11/2023,06:45:52,-0.000,0.0,0.0,0.0
23/11/2023,06:46:52,-0.000,0.0,0.0,0.0
23/11/2023,06:47:52,0.000,0.0,0.0,0.0
23/11/2023,06:48:52,0.000,0.0,0.0,0.0
23/11/2023,06:49:52,0.000,0.0,0.0,0.0
23/11/2023,06:50:52,-0.000,0.0,0.0,0.0
23/11/2023,06:51:52,-0.000,0.0,0.0,0.0
23/11/2023,06:52:52,0.000,0.0,0.0,0.0
23/11/2023,06:53:53,-0.000,0.0,0.0,0.0
23/11/2023,06:54:53,0.000,0.0,0.0,0.0
23/11/2023,06:55:52,0.000,0.0,0.0,0.0
23/11/2023,06:56:53,0.000,0.0,0.0,0.0
23/11/2023,06:57:52,-0.001,0.0,0.0,0.0
23/11/2023,06:58:52,0.001,0.0,0.0,0.0
23/11/2023,06:59:53,0.000,0.0,0.0,0.0
23/11/2023,07:00:52,0.000,0.0,0.0,0.0
23/11/2023,07:01:52,-0.001,0.0,0.0,0.0
23/11/2023,07:02:52,0.000,0.0,0.0,0.0
23/11/2023,07:03:53,-0.000,0.0,0.0,0.0
23/11/2023,07:04:52,0.000,0.0,0.0,0.0
23/11/2023,07:05:52,0.001,0.0,0.0,0.0
23/11/2023,07:06:54,0.000,0.0,0.0,0.0
23/11/2023,07:07:52,0.000,0.0,0.0,0.0
23/11/2023,07:08:52,-0.001,0.0,0.0,0.0
23/11/2023,07:09:52,0.000,0.0,0.0,0.0
23/11/2023,07:10:52,-0.000,0.0,0.0,0.0
23/11/2023,07:11:52,0.000,0.0,0.0,0.0
23/11/2023,07:12:52,0.000,0.0,0.0,0.0
23/11/2023,07:13:52,0.000,0.0,0.0,0.0
23/11/2023,07:14:52,0.000,0.0,0.0,0.0
23/11/2023,07:15:52,0.000,0.0,0.0,0.0
23/11/2023,07:16:52,-0.000,0.0,0.0,0.0
23/11/2023,07:17:52,0.000,0.0,0.0,0.0
23/11/2023,07:18:52,0.000,0.0,0.0,0.0
23/11/2023,07:19:53,0.000,0.0,0.0,0.0
23/11/2023,07:20:52,0.000,0.0,0.0,0.0
23/11/2023,07:21:52,-0.000,0.0,0.0,0.0
23/11/2023,07:22:52,0.001,0.0,0.0,0.0
23/11/2023,07:23:52,0.001,0.0,0.0,0.0
23/11/2023,07:24:52,0.002,0.0,0.0,0.0
23/11/2023,07:25:52,0.001,0.0,0.0,0.0
23/11/2023,07:26:53,0.001,0.0,0.0,0.0
23/11/2023,07:27:52,0.002,0.0,0.0,0.0
23/11/2023,07:28:52,0.001,0.0,0.0,0.0
23/11/2023,07:29:53,0.001,0.0,0.0,0.0
23/11/2023,07:30:52,0.000,0.0,0.0,0.0
23/11/2023,07:31:52,0.001,0.0,0.0,0.0
23/11/2023,07:32:52,0.001,0.0,0.0,0.0
23/11/2023,07:33:52,0.001,0.0,0.0,0.0
23/11/2023,07:34:52,0.002,0.0,0.0,0.0
23/11/2023,07:35:53,0.001,0.0,0.0,0.0
23/11/2023,07:36:53,0.002,0.0,0.0,0.0
23/11/2023,07:37:52,0.002,0.0,0.0,0.0
23/11/2023,07:38:53,0.002,0.0,0.0,0.0
23/11/2023,07:39:52,0.002,0.0,0.0,0.0
23/11/2023,07:40:52,0.002,0.0,0.0,0.0
23/11/2023,07:41:52,0.002,0.0,0.0,0.0
23/11/2023,07:42:53,0.003,0.0,0.0,0.0
23/11/2023,07:43:53,0.002,0.0,0.0,0.0
23/11/2023,07:44:52,0.003,0.0,0.0,0.0
23/11/2023,07:45:52,0.004,0.0,0.0,0.0
23/11/2023,07:46:53,0.004,0.0,0.0,0.0
23/11/2023,07:47:52,0.003,0.0,0.0,0.0
23/11/2023,07:48:52,0.004,0.0,0.0,0.0
23/11/2023,07:49:52,0.004,0.0,0.0,0.0
23/11/2023,07:50:52,0.005,0.0,0.0,0.0
23/11/2023,07:51:52,0.004,0.0,0.0,0.0
23/11/2023,07:52:52,0.004,0.0,0.0,0.0
23/11/2023,07:53:52,0.006,0.0,0.0,0.0
23/11/2023,07:54:52,0.006,0.0,0.0,0.0
23/11/2023,07:55:52,0.006,0.0,0.0,0.0
23/11/2023,07:56:52,0.006,0.0,0.0,0.0
23/11/2023,07:57:53,0.007,0.0,0.0,0.0
23/11/2023,07:58:53,0.007,0.0,0.0,0.0
23/11/2023,07:59:53,0.007,0.0,0.0,0.0
23/11/2023,08:00:52,0.008,0.0,0.001,0.001
23/11/2023,08:01:53,0.009,0.0,0.001,0.0
23/11/2023,08:02:53,0.008,0.0,0.001,0.0
23/11/2023,08:03:53,0.009,0.0,0.001,0.0
23/11/2023,08:04:52,0.009,0.0,0.001,0.0
23/11/2023,08:05:53,0.009,0.0,0.001,0.0
23/11/2023,08:06:53,0.009,0.0,0.001,0.0
23/11/2023,08:07:53,0.010,0.0,0.002,0.001
23/11/2023,08:08:52,0.011,0.0,0.002,0.0
23/11/2023,08:09:53,0.011,0.0,0.002,0.0
23/11/2023,08:10:52,0.011,0.0,0.002,0.0
23/11/2023,08:11:53,0.011,0.0,0.002,0.0
23/11/2023,08:12:53,0.012,0.0,0.003,0.001
23/11/2023,08:13:52,0.011,0.0,0.003,0.0
23/11/2023,08:14:53,0.012,0.0,0.003,0.0
23/11/2023,08:15:52,0.011,0.0,0.003,0.0
23/11/2023,08:16:53,0.011,0.0,0.003,0.0
23/11/2023,08:17:52,0.010,0.0,0.003,0.0
23/11/2023,08:18:53,0.011,0.0,0.004,0.001
23/11/2023,08:19:53,0.011,0.0,0.004,0.0
23/11/2023,08:20:53,0.010,0.0,0.004,0.0
23/11/2023,08:21:52,0.011,0.0,0.004,0.0
23/11/2023,08:22:53,0.011,0.0,0.004,0.0
23/11/2023,08:23:52,0.010,0.0,0.005,0.001
23/11/2023,08:24:53,0.010,0.0,0.005,0.0
23/11/2023,08:25:53,0.011,0.0,0.005,0.0
23/11/2023,08:26:52,0.010,0.0,0.005,0.0
23/11/2023,08:27:52,0.011,0.0,0.005,0.0
23/11/2023,08:28:52,0.011,0.0,0.005,0.0
23/11/2023,08:29:53,0.012,0.0,0.006,0.001
23/11/2023,08:30:52,0.011,0.0,0.006,0.0
23/11/2023,08:31:52,0.012,0.0,0.006,0.0
23/11/2023,08:32:53,0.014,0.0,0.006,0.0
23/11/2023,08:33:52,0.014,0.0,0.006,0.0
23/11/2023,08:34:52,0.018,0.0,0.007,0.001
23/11/2023,08:35:52,0.018,0.0,0.007,0.0
23/11/2023,08:36:52,0.019,0.0,0.007,0.0
23/11/2023,08:37:52,0.018,0.0,0.008,0.001
23/11/2023,08:38:52,0.018,0.0,0.008,0.0
23/11/2023,08:39:52,0.019,0.0,0.008,0.0
23/11/2023,08:40:52,0.021,0.0,0.009,0.001
23/11/2023,08:41:52,0.021,0.0,0.009,0.0
23/11/2023,08:42:52,0.021,0.0,0.009,0.0
23/11/2023,08:43:52,0.022,0.0,0.01,0.001
23/11/2023,08:44:52,0.024,0.0,0.01,0.0
23/11/2023,08:45:52,0.025,0.0,0.01,0.0
23/11/2023,08:46:52,0.027,0.0,0.011,0.001
23/11/2023,08:47:52,0.029,0.0,0.011,0.0
23/11/2023,08:48:52,0.029,0.0,0.012,0.001
23/11/2023,08:49:52,0.030,0.0,0.012,0.0
23/11/2023,08:50:52,0.030,0.0,0.013,0.001
23/11/2023,08:51:52,0.028,0.0,0.013,0.0
23/11/2023,08:52:52,0.025,0.0,0.014,0.001
23/11/2023,08:53:53,0.026,0.0,0.014,0.0
23/11/2023,08:54:53,0.025,0.0,0.015,0.001
23/11/2023,08:55:52,0.025,0.0,0.015,0.0
23/11/2023,08:56:53,0.026,0.0,0.015,0.0
23/11/2023,08:57:53,0.026,0.0,0.016,0.001
23/11/2023,08:58:52,0.028,0.0,0.016,0.0
23/11/2023,08:59:53,0.025,0.0,0.017,0.001
23/11/2023,09:00:54,0.024,0.0,0.017,0.0
23/11/2023,09:01:53,0.024,0.0,0.018,0.001
23/11/2023,09:02:52,0.024,0.0,0.018,0.0
23/11/2023,09:03:52,0.026,0.0,0.018,0.0
23/11/2023,09:04:53,0.026,0.0,0.019,0.001
23/11/2023,09:05:52,0.028,0.0,0.019,0.0
23/11/2023,09:06:53,0.028,0.0,0.02,0.001
23/11/2023,09:07:52,0.027,0.0,0.02,0.0
23/11/2023,09:08:53,0.026,0.0,0.021,0.001
23/11/2023,09:09:52,0.026,0.0,0.021,0.0
23/11/2023,09:10:53,0.026,0.0,0.022,0.001
23/11/2023,09:11:53,0.027,0.0,0.022,0.0
23/11/2023,09:12:52,0.029,0.0,0.022,0.0
23/11/2023,09:13:52,0.030,0.0,0.023,0.001
23/11/2023,09:14:52,0.031,0.0,0.023,0.0
23/11/2023,09:15:52,0.030,0.0,0.024,0.001
23/11/2023,09:16:53,0.032,0.0,0.024,0.0
23/11/2023,09:17:53,0.034,0.0,0.025,0.001
23/11/2023,09:18:53,0.035,0.0,0.026,0.001
23/11/2023,09:19:52,0.038,0.0,0.026,0.0
23/11/2023,09:20:53,0.041,0.0,0.027,0.001
23/11/2023,09:21:52,0.048,0.0,0.028,0.001
23/11/2023,09:22:52,0.055,0.0,0.028,0.0
23/11/2023,09:23:52,0.060,0.0,0.029,0.001
23/11/2023,09:24:53,0.066,0.0,0.03,0.001
23/11/2023,09:25:52,0.066,0.0,0.032,0.002
23/11/2023,09:26:53,0.062,0.0,0.033,0.001
23/11/2023,09:27:53,0.062,0.0,0.034,0.001
23/11/2023,09:28:53,0.061,0.0,0.035,0.001
23/11/2023,09:29:52,0.061,0.0,0.036,0.001
23/11/2023,09:30:53,0.063,0.0,0.037,0.001
23/11/2023,09:31:53,0.065,0.0,0.038,0.001
23/11/2023,09:32:52,0.064,0.0,0.039,0.001
23/11/2023,09:33:53,0.068,0.0,0.04,0.001
23/11/2023,09:34:53,0.063,0.0,0.041,0.001
23/11/2023,09:35:52,0.058,0.0,0.042,0.001
23/11/2023,09:36:52,0.057,0.0,0.043,0.001
23/11/2023,09:37:52,0.051,0.0,0.044,0.001
23/11/2023,09:38:52,0.049,0.0,0.045,0.001
23/11/2023,09:39:52,0.055,0.0,0.046,0.001
23/11/2023,09:40:52,0.062,0.0,0.047,0.001
23/11/2023,09:41:53,0.065,0.0,0.048,0.001
23/11/2023,09:42:53,0.066,0.0,0.049,0.001
23/11/2023,09:43:53,0.071,0.0,0.05,0.001
23/11/2023,09:44:52,0.077,0.0,0.051,0.001
23/11/2023,09:45:53,0.081,0.0,0.052,0.001
23/11/2023,09:46:52,0.086,0.0,0.054,0.002
23/11/2023,09:47:52,0.091,0.0,0.055,0.001
23/11/2023,09:48:52,0.095,0.0,0.057,0.002
23/11/2023,09:49:52,0.098,0.0,0.058,0.001
23/11/2023,09:50:53,0.102,0.0,0.06,0.002
23/11/2023,09:51:53,0.107,0.0,0.062,0.002
23/11/2023,09:52:52,0.109,0.0,0.064,0.002
23/11/2023,09:53:53,0.108,0.0,0.066,0.002
23/11/2023,09:54:52,0.104,0.0,0.067,0.001
23/11/2023,09:55:53,0.100,0.0,0.069,0.002
23/11/2023,09:56:53,0.096,0.0,0.071,0.002
23/11/2023,09:57:53,0.090,0.0,0.072,0.001
23/11/2023,09:58:53,0.085,0.0,0.074,0.002
23/11/2023,09:59:52,0.083,0.0,0.075,0.001
23/11/2023,10:00:52,0.081,0.0,0.076,0.001
23/11/2023,10:01:53,0.080,0.0,0.078,0.002
23/11/2023,10:02:53,0.081,0.0,0.079,0.001
23/11/2023,10:03:53,0.081,0.0,0.08,0.001
23/11/2023,10:04:52,0.081,0.0,0.082,0.002
23/11/2023,10:05:56,0.081,0.0,0.083,0.001
23/11/2023,10:06:53,0.083,0.0,0.085,0.002
23/11/2023,10:07:52,0.087,0.0,0.086,0.001
23/11/2023,10:08:52,0.089,0.0,0.087,0.001
23/11/2023,10:09:52,0.085,0.0,0.089,0.002
23/11/2023,10:10:52,0.086,0.0,0.09,0.001
23/11/2023,10:11:52,0.087,0.0,0.092,0.002
23/11/2023,10:12:52,0.091,0.0,0.093,0.001
23/11/2023,10:13:53,0.094,0.0,0.095,0.002